| time (UTC) | temp C | wind direction | speed KPH | gust KPH | rain 1hr cm | rain 24hr cm | rain mn cm | humidity % | barometer mb |
| 20260502161203 | 18 | 360 | 1.6 | 9.7 | 0.00 | 0.00 | 0.00 | 62 | 1012.2 |
| 20260502160511 | 18 | 360 | 1.6 | 9.7 | 0.00 | 0.00 | 0.00 | 62 | 1012.2 |
| 20260502152011 | 18 | 0 | 0.0 | 9.7 | 0.00 | 0.00 | 0.00 | 58 | 1012.8 |
| 20260502151533 | 18 | 0 | 0.0 | 9.7 | 0.00 | 0.00 | 0.00 | 59 | 1012.8 |
| 20260502151009 | 18 | 0 | 1.6 | 9.7 | 0.00 | 0.00 | 0.00 | 59 | 1012.9 |
| 20260502150511 | 18 | 360 | 1.6 | 9.7 | 0.00 | 0.00 | 0.00 | 59 | 1013.0 |
| 20260502130511 | 18 | 225 | 1.6 | 14.5 | 0.00 | 0.00 | 0.00 | 56 | 1015.0 |
| 20260502123513 | 17 | 360 | 1.6 | 12.9 | 0.00 | 0.00 | 0.00 | 61 | 1015.2 |
| 20260502123034 | 17 | 360 | 3.2 | 12.9 | 0.00 | 0.00 | 0.00 | 61 | 1015.2 |
| 20260502122512 | 17 | 360 | 4.8 | 16.1 | 0.00 | 0.00 | 0.00 | 61 | 1015.1 |
| 20260502122013 | 17 | 360 | 4.8 | 16.1 | 0.00 | 0.00 | 0.00 | 62 | 1015.2 |
| 20260502121531 | 17 | 205 | 3.2 | 12.9 | 0.00 | 0.00 | 0.00 | 61 | 1015.2 |
| 20260502121010 | 17 | 360 | 1.6 | 12.9 | 0.00 | 0.00 | 0.00 | 59 | 1015.3 |
| 20260502120510 | 18 | 360 | 4.8 | 16.1 | 0.00 | 0.00 | 0.00 | 59 | 1015.5 |
| 20260502115511 | 18 | 157 | 1.6 | 16.1 | 0.00 | 0.00 | 0.00 | 60 | 1015.6 |
| 20260502115012 | 18 | 360 | 3.2 | 16.1 | 0.00 | 0.00 | 0.00 | 60 | 1015.7 |
| 20260502114528 | 18 | 203 | 3.2 | 12.9 | 0.00 | 0.00 | 0.00 | 61 | 1015.6 |
| 20260502114008 | 17 | 360 | 3.2 | 9.7 | 0.00 | 0.00 | 0.00 | 61 | 1015.7 |
| 20260502113512 | 17 | 161 | 1.6 | 9.7 | 0.00 | 0.00 | 0.00 | 62 | 1015.6 |
| 20260502113028 | 17 | 360 | 3.2 | 9.7 | 0.00 | 0.00 | 0.00 | 64 | 1015.5 |
| 20260502112511 | 17 | 360 | 1.6 | 12.9 | 0.00 | 0.00 | 0.00 | 63 | 1015.7 |
| 20260502112013 | 17 | 360 | 3.2 | 12.9 | 0.00 | 0.00 | 0.00 | 64 | 1015.8 |
| 20260502111530 | 16 | 360 | 3.2 | 9.7 | 0.00 | 0.00 | 0.00 | 65 | 1015.9 |
| 20260502111012 | 16 | 360 | 3.2 | 19.3 | 0.00 | 0.00 | 0.00 | 67 | 1016.1 |
| 20260502110510 | 16 | 220 | 6.4 | 19.3 | 0.00 | 0.00 | 0.00 | 66 | 1016.2 |
| 20260502110031 | 16 | 360 | 9.7 | 19.3 | 0.00 | 0.00 | 0.00 | 65 | 1016.2 |
| 20260502105513 | 16 | 360 | 4.8 | 16.1 | 0.00 | 0.00 | 0.00 | 66 | 1016.3 |
| 20260502105010 | 16 | 360 | 4.8 | 16.1 | 0.00 | 0.00 | 0.00 | 64 | 1016.4 |
| 20260502104528 | 16 | 0 | 3.2 | 14.5 | 0.00 | 0.00 | 0.00 | 66 | 1016.2 |
| 20260502104008 | 16 | 360 | 4.8 | 14.5 | 0.00 | 0.00 | 0.00 | 65 | 1016.2 |
| 20260502103508 | 16 | 360 | 4.8 | 9.7 | 0.00 | 0.00 | 0.00 | 66 | 1016.2 |
| 20260502103030 | 16 | 360 | 1.6 | 6.4 | 0.00 | 0.00 | 0.00 | 69 | 1016.2 |
| 20260502102510 | 15 | 360 | 1.6 | 8.0 | 0.00 | 0.00 | 0.00 | 68 | 1016.2 |
| 20260502102011 | 15 | 360 | 3.2 | 8.0 | 0.00 | 0.00 | 0.00 | 68 | 1016.3 |
| 20260502101540 | 15 | 229 | 1.6 | 6.4 | 0.00 | 0.00 | 0.00 | 68 | 1016.3 |
| 20260502101007 | 15 | 360 | 0.0 | 9.7 | 0.00 | 0.00 | 0.00 | 69 | 1016.2 |
| 20260502100512 | 15 | 360 | 1.6 | 9.7 | 0.00 | 0.00 | 0.00 | 70 | 1016.3 |
| 20260502091528 | 13 | 360 | 3.2 | 9.7 | 0.00 | 0.00 | 0.00 | 76 | 1017.0 |
| 20260502091007 | 13 | 205 | 0.0 | 9.7 | 0.00 | 0.00 | 0.00 | 77 | 1017.2 |
| 20260502090507 | 13 | 360 | 1.6 | 9.7 | 0.00 | 0.00 | 0.00 | 76 | 1017.3 |
| 20260502071530 | 11 | 0 | 0.0 | 4.8 | 0.00 | 0.00 | 0.00 | 87 | 1017.5 |
| 20260502071013 | 11 | 0 | 1.6 | 6.4 | 0.00 | 0.00 | 0.00 | 88 | 1017.5 |
| 20260502070509 | 10 | 360 | 0.0 | 6.4 | 0.00 | 0.00 | 0.00 | 89 | 1017.5 |
| 20260502070028 | 10 | 360 | 1.6 | 6.4 | 0.00 | 0.00 | 0.00 | 89 | 1017.5 |
| 20260502065510 | 10 | 360 | 0.0 | 4.8 | 0.00 | 0.00 | 0.00 | 90 | 1017.3 |
| 20260502065009 | 10 | 0 | 0.0 | 4.8 | 0.00 | 0.00 | 0.00 | 91 | 1017.4 |
| 20260502064527 | 10 | 0 | 0.0 | 4.8 | 0.00 | 0.00 | 0.00 | 90 | 1017.5 |
| 20260502064010 | 10 | 360 | 1.6 | 4.8 | 0.00 | 0.00 | 0.00 | 91 | 1017.4 |
| 20260502063509 | 10 | 360 | 0.0 | 3.2 | 0.00 | 0.00 | 0.00 | 91 | 1017.3 |
| 20260502063030 | 10 | 0 | 0.0 | 0.0 | 0.00 | 0.00 | 0.00 | 92 | 1017.3 |
| 20260502062511 | 10 | 0 | 0.0 | 0.0 | 0.00 | 0.00 | 0.00 | 91 | 1017.3 |
| 20260502062016 | 10 | 0 | 0.0 | 1.6 | 0.00 | 0.00 | 0.00 | 91 | 1017.3 |
| 20260502061531 | 9 | 0 | 0.0 | 1.6 | 0.00 | 0.00 | 0.00 | 92 | 1017.3 |
| 20260502061008 | 9 | 0 | 0.0 | 3.2 | 0.00 | 0.00 | 0.00 | 92 | 1017.3 |
| 20260502060513 | 9 | 0 | 0.0 | 3.2 | 0.00 | 0.00 | 0.00 | 92 | 1017.3 |
| 20260502060030 | 8 | 0 | 0.0 | 1.6 | 0.00 | 0.00 | 0.00 | 92 | 1017.2 |
| 20260502055509 | 8 | 0 | 0.0 | 1.6 | 0.00 | 0.00 | 0.00 | 92 | 1017.3 |
| 20260502055011 | 8 | 0 | 0.0 | 1.6 | 0.00 | 0.00 | 0.00 | 92 | 1017.1 |
| 20260502054527 | 8 | 0 | 0.0 | 0.0 | 0.00 | 0.00 | 0.00 | 92 | 1017.2 |
| 20260502054008 | 8 | 0 | 0.0 | 0.0 | 0.00 | 0.00 | 0.00 | 92 | 1017.3 |
| 20260502053512 | 8 | 0 | 0.0 | 0.0 | 0.00 | 0.00 | 0.00 | 91 | 1017.3 |
| 20260502053028 | 8 | 0 | 0.0 | 1.6 | 0.00 | 0.00 | 0.00 | 91 | 1017.2 |
| 20260502052510 | 7 | 0 | 0.0 | 1.6 | 0.00 | 0.00 | 0.00 | 91 | 1017.2 |
| 20260502052009 | 7 | 0 | 0.0 | 0.0 | 0.00 | 0.00 | 0.00 | 92 | 1017.2 |
| 20260502051533 | 7 | 0 | 0.0 | 0.0 | 0.00 | 0.00 | 0.00 | 91 | 1017.1 |
| 20260502051009 | 7 | 0 | 0.0 | 0.0 | 0.00 | 0.00 | 0.00 | 91 | 1017.1 |
| 20260502050510 | 7 | 0 | 0.0 | 0.0 | 0.00 | 0.00 | 0.00 | 91 | 1017.0 |
| 20260502050035 | 7 | 0 | 0.0 | 0.0 | 0.00 | 0.00 | 0.00 | 90 | 1017.0 |
| 20260502045509 | 7 | 0 | 0.0 | 0.0 | 0.00 | 0.00 | 0.00 | 90 | 1017.1 |
| 20260502045013 | 7 | 0 | 0.0 | 0.0 | 0.00 | 0.00 | 0.00 | 90 | 1017.1 |
| 20260502044531 | 7 | 0 | 0.0 | 0.0 | 0.00 | 0.00 | 0.00 | 90 | 1017.1 |
| 20260502044012 | 7 | 0 | 0.0 | 0.0 | 0.00 | 0.00 | 0.00 | 90 | 1017.1 |
| 20260502043508 | 7 | 0 | 0.0 | 0.0 | 0.00 | 0.00 | 0.00 | 89 | 1017.1 |
| 20260502043030 | 7 | 0 | 0.0 | 0.0 | 0.00 | 0.00 | 0.00 | 89 | 1017.2 |
| 20260502042509 | 7 | 0 | 0.0 | 1.6 | 0.00 | 0.00 | 0.00 | 90 | 1017.2 |
| 20260502042014 | 8 | 0 | 0.0 | 1.6 | 0.00 | 0.00 | 0.00 | 89 | 1017.2 |
| 20260502041542 | 8 | 0 | 0.0 | 1.6 | 0.00 | 0.00 | 0.00 | 89 | 1017.2 |
| 20260502041010 | 8 | 0 | 0.0 | 1.6 | 0.00 | 0.00 | 0.00 | 89 | 1017.2 |
| 20260502040508 | 8 | 0 | 0.0 | 0.0 | 0.00 | 0.00 | 0.00 | 88 | 1017.1 |
| 20260502040027 | 8 | 0 | 0.0 | 1.6 | 0.00 | 0.00 | 0.00 | 89 | 1017.2 |
| 20260502035510 | 8 | 0 | 0.0 | 1.6 | 0.00 | 0.00 | 0.00 | 88 | 1017.3 |
| 20260502035011 | 8 | 0 | 0.0 | 1.6 | 0.00 | 0.00 | 0.00 | 88 | 1017.3 |
| 20260502034526 | 8 | 0 | 0.0 | 0.0 | 0.00 | 0.00 | 0.00 | 89 | 1017.3 |
| 20260502034011 | 8 | 0 | 0.0 | 0.0 | 0.00 | 0.00 | 0.00 | 88 | 1017.3 |
| 20260502033514 | 9 | 0 | 0.0 | 0.0 | 0.00 | 0.00 | 0.00 | 88 | 1017.2 |
| 20260502033031 | 9 | 0 | 0.0 | 0.0 | 0.00 | 0.00 | 0.00 | 88 | 1017.2 |
| 20260502032511 | 9 | 0 | 0.0 | 0.0 | 0.00 | 0.00 | 0.00 | 88 | 1017.3 |
| 20260502032009 | 9 | 0 | 0.0 | 0.0 | 0.00 | 0.00 | 0.00 | 88 | 1017.3 |
| 20260502031528 | 9 | 0 | 0.0 | 0.0 | 0.00 | 0.00 | 0.00 | 87 | 1017.3 |
| 20260502031009 | 10 | 0 | 0.0 | 0.0 | 0.00 | 0.00 | 0.00 | 87 | 1017.3 |
| 20260502030510 | 10 | 0 | 0.0 | 0.0 | 0.00 | 0.00 | 0.00 | 87 | 1017.4 |
| 20260502030028 | 10 | 0 | 0.0 | 0.0 | 0.00 | 0.00 | 0.00 | 87 | 1017.3 |
| 20260502025509 | 10 | 0 | 0.0 | 0.0 | 0.00 | 0.00 | 0.00 | 87 | 1017.5 |
| 20260502025011 | 10 | 0 | 0.0 | 0.0 | 0.00 | 0.00 | 0.00 | 87 | 1017.5 |
| 20260502024529 | 10 | 0 | 0.0 | 0.0 | 0.00 | 0.00 | 0.00 | 87 | 1017.5 |
| 20260502024010 | 10 | 0 | 0.0 | 0.0 | 0.00 | 0.00 | 0.00 | 87 | 1017.5 |
| 20260502023513 | 10 | 0 | 0.0 | 0.0 | 0.00 | 0.00 | 0.00 | 87 | 1017.6 |
| 20260502023028 | 10 | 0 | 0.0 | 1.6 | 0.00 | 0.00 | 0.00 | 87 | 1017.6 |
| 20260502022510 | 10 | 0 | 0.0 | 1.6 | 0.00 | 0.00 | 0.00 | 87 | 1017.7 |
| 20260502022010 | 10 | 0 | 0.0 | 1.6 | 0.00 | 0.00 | 0.00 | 87 | 1017.6 |
| 20260502021530 | 10 | 0 | 0.0 | 1.6 | 0.00 | 0.00 | 0.00 | 86 | 1017.6 |
| 20260502021012 | 10 | 0 | 0.0 | 3.2 | 0.00 | 0.00 | 0.00 | 86 | 1017.7 |
| 20260502020511 | 10 | 0 | 0.0 | 3.2 | 0.00 | 0.00 | 0.00 | 86 | 1017.7 |
| 20260502020028 | 10 | 0 | 0.0 | 1.6 | 0.00 | 0.00 | 0.00 | 86 | 1017.7 |
| 20260502015509 | 10 | 0 | 0.0 | 0.0 | 0.00 | 0.00 | 0.00 | 85 | 1017.7 |
| 20260502015013 | 10 | 0 | 0.0 | 0.0 | 0.00 | 0.00 | 0.00 | 84 | 1017.8 |
| 20260502014532 | 11 | 0 | 0.0 | 1.6 | 0.00 | 0.00 | 0.00 | 84 | 1017.7 |
| 20260502014010 | 11 | 0 | 0.0 | 1.6 | 0.00 | 0.00 | 0.00 | 84 | 1017.8 |
| 20260502013511 | 11 | 0 | 0.0 | 3.2 | 0.00 | 0.00 | 0.00 | 84 | 1017.9 |
| 20260502013027 | 11 | 0 | 0.0 | 3.2 | 0.00 | 0.00 | 0.00 | 84 | 1017.9 |
| 20260502012515 | 11 | 0 | 0.0 | 3.2 | 0.00 | 0.00 | 0.00 | 84 | 1018.0 |
| 20260502012010 | 11 | 360 | 0.0 | 3.2 | 0.00 | 0.00 | 0.00 | 84 | 1018.1 |
| 20260502011528 | 11 | 0 | 0.0 | 3.2 | 0.00 | 0.00 | 0.00 | 84 | 1018.1 |
| 20260502011011 | 11 | 0 | 0.0 | 3.2 | 0.00 | 0.00 | 0.00 | 84 | 1018.2 |
| 20260502010511 | 11 | 241 | 0.0 | 3.2 | 0.00 | 0.00 | 0.00 | 84 | 1018.2 |
| 20260502010030 | 11 | 0 | 0.0 | 4.8 | 0.00 | 0.00 | 0.00 | 84 | 1018.3 |
| 20260502005511 | 11 | 360 | 0.0 | 4.8 | 0.00 | 0.00 | 0.00 | 84 | 1018.4 |
| 20260502005010 | 11 | 0 | 0.0 | 4.8 | 0.00 | 0.00 | 0.00 | 85 | 1018.3 |
| 20260502004530 | 11 | 245 | 0.0 | 4.8 | 0.00 | 0.00 | 0.00 | 85 | 1018.3 |
| 20260502004011 | 12 | 360 | 0.0 | 4.8 | 0.00 | 0.00 | 0.00 | 86 | 1018.3 |
| 20260502003510 | 12 | 0 | 0.0 | 4.8 | 0.00 | 0.00 | 0.00 | 87 | 1018.4 |
| 20260502003027 | 12 | 0 | 0.0 | 4.8 | 0.00 | 0.00 | 0.00 | 88 | 1018.5 |
| 20260502002510 | 12 | 360 | 0.0 | 1.6 | 0.00 | 0.00 | 0.00 | 88 | 1018.4 |
| 20260502002011 | 12 | 0 | 0.0 | 0.0 | 0.00 | 0.00 | 0.00 | 89 | 1018.4 |
| 20260502001528 | 12 | 0 | 0.0 | 0.0 | 0.00 | 0.00 | 0.00 | 89 | 1018.4 |
| 20260502001011 | 12 | 0 | 0.0 | 0.0 | 0.00 | 0.00 | 0.00 | 89 | 1018.5 |
| 20260502000511 | 12 | 0 | 0.0 | 1.6 | 0.00 | 0.00 | 0.00 | 89 | 1018.5 |
| 20260502000028 | 12 | 0 | 0.0 | 3.2 | 0.00 | 0.00 | 0.00 | 89 | 1018.4 |
| 20260501235511 | 12 | 360 | 0.0 | 3.2 | 0.00 | 0.00 | 0.00 | 89 | 1018.4 |
| 20260501235011 | 12 | 0 | 0.0 | 4.8 | 0.00 | 0.00 | 0.00 | 89 | 1018.4 |
| 20260501234527 | 12 | 0 | 0.0 | 4.8 | 0.00 | 0.00 | 0.00 | 89 | 1018.4 |
| 20260501234011 | 12 | 360 | 0.0 | 4.8 | 0.00 | 0.00 | 0.00 | 89 | 1018.5 |
| 20260501233511 | 12 | 0 | 0.0 | 0.0 | 0.00 | 0.00 | 0.00 | 88 | 1018.5 |
| 20260501233028 | 12 | 0 | 0.0 | 0.0 | 0.00 | 0.00 | 0.00 | 89 | 1018.6 |
| 20260501232513 | 12 | 0 | 0.0 | 0.0 | 0.00 | 0.00 | 0.00 | 89 | 1018.5 |
| 20260501232011 | 12 | 0 | 0.0 | 0.0 | 0.00 | 0.00 | 0.00 | 89 | 1018.6 |
| 20260501231546 | 12 | 0 | 0.0 | 0.0 | 0.00 | 0.00 | 0.00 | 89 | 1018.6 |
| 20260501231010 | 12 | 0 | 0.0 | 0.0 | 0.00 | 0.00 | 0.00 | 89 | 1018.7 |
| 20260501230508 | 12 | 0 | 0.0 | 0.0 | 0.00 | 0.00 | 0.00 | 89 | 1018.7 |
| 20260501230030 | 12 | 0 | 0.0 | 0.0 | 0.00 | 0.00 | 0.00 | 89 | 1018.7 |
| 20260501225511 | 12 | 0 | 0.0 | 0.0 | 0.00 | 0.00 | 0.00 | 89 | 1018.7 |
| 20260501225013 | 12 | 0 | 0.0 | 1.6 | 0.00 | 0.00 | 0.00 | 89 | 1018.6 |
| 20260501224528 | 12 | 0 | 0.0 | 3.2 | 0.00 | 0.00 | 0.00 | 89 | 1018.6 |
| 20260501224010 | 12 | 360 | 0.0 | 4.8 | 0.00 | 0.00 | 0.00 | 89 | 1018.7 |
| 20260501223513 | 12 | 0 | 0.0 | 4.8 | 0.00 | 0.00 | 0.00 | 89 | 1018.6 |
| 20260501223046 | 12 | 0 | 0.0 | 3.2 | 0.00 | 0.00 | 0.00 | 90 | 1018.8 |
| 20260501222507 | 12 | 0 | 0.0 | 4.8 | 0.00 | 0.00 | 0.00 | 90 | 1018.7 |
| 20260501222010 | 12 | 0 | 0.0 | 4.8 | 0.00 | 0.00 | 0.00 | 89 | 1018.8 |
| 20260501221530 | 12 | 360 | 0.0 | 4.8 | 0.00 | 0.00 | 0.00 | 89 | 1018.7 |
| 20260501221011 | 12 | 360 | 0.0 | 4.8 | 0.00 | 0.00 | 0.00 | 89 | 1018.7 |
| 20260501220510 | 12 | 0 | 0.0 | 0.0 | 0.00 | 0.00 | 0.00 | 89 | 1018.7 |
| 20260501220030 | 12 | 0 | 0.0 | 3.2 | 0.00 | 0.00 | 0.00 | 89 | 1018.6 |
| 20260501215508 | 12 | 0 | 0.0 | 4.8 | 0.00 | 0.00 | 0.00 | 88 | 1018.7 |
| 20260501215012 | 12 | 0 | 0.0 | 4.8 | 0.00 | 0.00 | 0.00 | 89 | 1018.7 |
| 20260501214528 | 12 | 0 | 0.0 | 3.2 | 0.00 | 0.00 | 0.00 | 88 | 1018.7 |
| 20260501214010 | 12 | 0 | 0.0 | 1.6 | 0.00 | 0.00 | 0.00 | 88 | 1018.7 |
| 20260501213510 | 12 | 0 | 0.0 | 1.6 | 0.00 | 0.00 | 0.00 | 88 | 1018.7 |
| 20260501213033 | 12 | 0 | 0.0 | 1.6 | 0.00 | 0.00 | 0.00 | 88 | 1018.6 |
| 20260501212508 | 12 | 0 | 0.0 | 1.6 | 0.00 | 0.00 | 0.00 | 87 | 1018.6 |
| 20260501212011 | 12 | 0 | 0.0 | 3.2 | 0.00 | 0.00 | 0.00 | 87 | 1018.5 |
| 20260501211530 | 12 | 0 | 0.0 | 3.2 | 0.00 | 0.00 | 0.00 | 87 | 1018.5 |
| 20260501211016 | 12 | 0 | 0.0 | 4.8 | 0.00 | 0.00 | 0.00 | 87 | 1018.5 |
| 20260501210507 | 12 | 360 | 0.0 | 4.8 | 0.00 | 0.00 | 0.00 | 87 | 1018.5 |
| 20260501210029 | 13 | 0 | 1.6 | 4.8 | 0.00 | 0.00 | 0.00 | 87 | 1018.5 |
| 20260501205510 | 13 | 0 | 0.0 | 4.8 | 0.00 | 0.00 | 0.00 | 86 | 1018.5 |
| 20260501205008 | 13 | 360 | 0.0 | 4.8 | 0.00 | 0.00 | 0.00 | 86 | 1018.5 |
| 20260501204528 | 13 | 0 | 0.0 | 4.8 | 0.00 | 0.00 | 0.00 | 86 | 1018.6 |
| 20260501204010 | 13 | 360 | 0.0 | 4.8 | 0.00 | 0.00 | 0.00 | 86 | 1018.5 |
| 20260501203510 | 13 | 0 | 0.0 | 3.2 | 0.00 | 0.00 | 0.00 | 85 | 1018.5 |
| 20260501203028 | 13 | 0 | 0.0 | 3.2 | 0.00 | 0.00 | 0.00 | 85 | 1018.6 |
| 20260501202509 | 13 | 0 | 0.0 | 6.4 | 0.00 | 0.00 | 0.00 | 85 | 1018.6 |
| 20260501202015 | 13 | 0 | 1.6 | 12.9 | 0.00 | 0.00 | 0.00 | 84 | 1018.6 |
| 20260501201530 | 13 | 360 | 1.6 | 12.9 | 0.00 | 0.00 | 0.00 | 83 | 1018.5 |
| 20260501201012 | 14 | 360 | 3.2 | 12.9 | 0.00 | 0.00 | 0.00 | 82 | 1018.4 |
| 20260501200508 | 14 | 360 | 3.2 | 8.0 | 0.00 | 0.00 | 0.00 | 82 | 1018.6 |
| 20260501200028 | 15 | 360 | 1.6 | 4.8 | 0.00 | 0.00 | 0.00 | 81 | 1018.5 |
| 20260501195511 | 15 | 205 | 1.6 | 4.8 | 0.00 | 0.00 | 0.00 | 81 | 1018.5 |
| 20260501195008 | 15 | 0 | 0.0 | 3.2 | 0.00 | 0.00 | 0.00 | 80 | 1018.5 |
| 20260501194528 | 15 | 360 | 0.0 | 4.8 | 0.00 | 0.00 | 0.00 | 80 | 1018.4 |
| 20260501194010 | 15 | 202 | 0.0 | 4.8 | 0.00 | 0.00 | 0.00 | 80 | 1018.4 |
| 20260501193510 | 15 | 0 | 0.0 | 4.8 | 0.00 | 0.00 | 0.00 | 79 | 1018.4 |
| 20260501193029 | 15 | 360 | 1.6 | 8.0 | 0.00 | 0.00 | 0.00 | 79 | 1018.4 |
| 20260501192510 | 15 | 360 | 1.6 | 8.0 | 0.00 | 0.00 | 0.00 | 79 | 1018.4 |
| 20260501192011 | 15 | 0 | 1.6 | 8.0 | 0.00 | 0.00 | 0.00 | 78 | 1018.3 |
| 20260501191529 | 15 | 360 | 1.6 | 8.0 | 0.00 | 0.00 | 0.00 | 78 | 1018.4 |
| 20260501191010 | 16 | 360 | 1.6 | 12.9 | 0.00 | 0.00 | 0.00 | 78 | 1018.3 |
| 20260501190509 | 16 | 360 | 3.2 | 12.9 | 0.00 | 0.00 | 0.00 | 77 | 1018.3 |
| 20260501190030 | 16 | 190 | 3.2 | 14.5 | 0.00 | 0.00 | 0.00 | 77 | 1018.2 |
| 20260501185509 | 16 | 209 | 3.2 | 14.5 | 0.00 | 0.00 | 0.00 | 76 | 1018.3 |
| 20260501185013 | 16 | 360 | 1.6 | 12.9 | 0.00 | 0.00 | 0.00 | 76 | 1018.1 |
| 20260501184530 | 16 | 360 | 3.2 | 12.9 | 0.00 | 0.00 | 0.00 | 75 | 1018.2 |
| 20260501184012 | 17 | 360 | 4.8 | 12.9 | 0.00 | 0.00 | 0.00 | 75 | 1018.2 |
| 20260501183511 | 17 | 360 | 3.2 | 14.5 | 0.00 | 0.00 | 0.00 | 74 | 1018.2 |
| 20260501183029 | 17 | 360 | 4.8 | 14.5 | 0.00 | 0.00 | 0.00 | 74 | 1018.2 |
| 20260501182508 | 17 | 199 | 6.4 | 14.5 | 0.00 | 0.00 | 0.00 | 73 | 1018.1 |
| 20260501182012 | 17 | 360 | 3.2 | 8.0 | 0.00 | 0.00 | 0.00 | 72 | 1018.2 |
| 20260501181534 | 17 | 360 | 1.6 | 9.7 | 0.00 | 0.00 | 0.00 | 71 | 1018.2 |
| 20260501181011 | 17 | 360 | 3.2 | 12.9 | 0.00 | 0.00 | 0.00 | 70 | 1018.1 |
| 20260501180510 | 18 | 360 | 4.8 | 12.9 | 0.00 | 0.00 | 0.00 | 69 | 1018.0 |
| 20260501180027 | 18 | 360 | 3.2 | 8.0 | 0.00 | 0.00 | 0.00 | 68 | 1018.0 |
| 20260501175510 | 18 | 190 | 3.2 | 8.0 | 0.00 | 0.00 | 0.00 | 67 | 1017.8 |
| 20260501175014 | 18 | 360 | 3.2 | 9.7 | 0.00 | 0.00 | 0.00 | 66 | 1017.9 |
| 20260501174542 | 18 | 360 | 3.2 | 12.9 | 0.00 | 0.00 | 0.00 | 66 | 1017.7 |
| 20260501174010 | 18 | 360 | 3.2 | 12.9 | 0.00 | 0.00 | 0.00 | 65 | 1017.7 |
| 20260501173510 | 18 | 360 | 3.2 | 20.9 | 0.00 | 0.00 | 0.00 | 65 | 1017.6 |
| 20260501173036 | 18 | 360 | 6.4 | 20.9 | 0.00 | 0.00 | 0.00 | 64 | 1017.6 |
| 20260501172511 | 18 | 198 | 3.2 | 19.3 | 0.00 | 0.00 | 0.00 | 64 | 1017.6 |
| 20260501172011 | 18 | 360 | 4.8 | 20.9 | 0.00 | 0.00 | 0.00 | 63 | 1017.7 |
| 20260501171530 | 18 | 360 | 6.4 | 20.9 | 0.00 | 0.00 | 0.00 | 62 | 1017.6 |
| 20260501171011 | 19 | 360 | 11.3 | 20.9 | 0.00 | 0.00 | 0.00 | 62 | 1017.6 |
| 20260501170511 | 19 | 360 | 8.0 | 17.7 | 0.00 | 0.00 | 0.00 | 61 | 1017.5 |
| 20260501170029 | 20 | 360 | 8.0 | 19.3 | 0.00 | 0.00 | 0.00 | 61 | 1017.5 |
| 20260501165513 | 20 | 360 | 6.4 | 19.3 | 0.00 | 0.00 | 0.00 | 60 | 1017.5 |
| 20260501165013 | 20 | 360 | 8.0 | 20.9 | 0.00 | 0.00 | 0.00 | 59 | 1017.4 |
| 20260501164538 | 21 | 247 | 4.8 | 20.9 | 0.00 | 0.00 | 0.00 | 60 | 1017.5 |
| 20260501164014 | 21 | 360 | 3.2 | 19.3 | 0.00 | 0.00 | 0.00 | 61 | 1017.4 |
| 20260501163507 | 21 | 360 | 8.0 | 19.3 | 0.00 | 0.00 | 0.00 | 60 | 1017.3 |
| 20260501163030 | 22 | 360 | 8.0 | 20.9 | 0.00 | 0.00 | 0.00 | 59 | 1017.2 |
| 20260501162507 | 22 | 360 | 4.8 | 20.9 | 0.00 | 0.00 | 0.00 | 57 | 1017.2 |
| 20260501162009 | 23 | 360 | 9.7 | 20.9 | 0.00 | 0.00 | 0.00 | 56 | 1017.3 |
| 20260501161530 | 23 | 205 | 6.4 | 20.9 | 0.00 | 0.00 | 0.00 | 56 | 1017.1 |